DH1GAP-13 Weather Reports


time (UTC)temp
C
wind
direction
speed
KPH
gust
KPH
rain 1hr
cm
rain 24hr
cm
rain mn
cm
humidity
%
barometer
mb
20260502163613 25 157 0.0 0.0 0.00 0.00 0.00 34 1026.0
20260502163512 25 157 0.0 0.0 0.00 0.00 0.00 34 1026.0
20260502163412 25 157 0.0 0.0 0.00 0.00 0.00 34 1026.0
20260502163312 26 157 0.0 0.0 0.00 0.00 0.00 34 1026.0
20260502163212 26 135 0.0 0.0 0.00 0.00 0.00 34 1026.0
20260502163112 26 157 0.0 0.0 0.00 0.00 0.00 34 1026.0
20260502163012 26 157 0.0 0.0 0.00 0.00 0.00 34 1026.0
20260502162912 26 112 0.0 0.0 0.00 0.00 0.00 34 1026.0
20260502162812 26 180 0.0 0.0 0.00 0.00 0.00 34 1026.0
20260502162712 26 135 0.0 0.0 0.00 0.00 0.00 34 1026.0
20260502162612 26 112 0.0 0.0 0.00 0.00 0.00 34 1026.0
20260502162512 26 157 0.0 0.0 0.00 0.00 0.00 34 1026.0
20260502162412 26 157 0.0 0.0 0.00 0.00 0.00 34 1026.0
20260502162312 26 157 0.0 0.0 0.00 0.00 0.00 34 1026.1
20260502162212 26 135 0.0 0.0 0.00 0.00 0.00 34 1026.0
20260502162112 26 112 0.0 0.0 0.00 0.00 0.00 34 1026.0
20260502162012 26 112 0.0 0.0 0.00 0.00 0.00 34 1026.0
20260502161912 26 90 0.0 0.0 0.00 0.00 0.00 34 1026.0
20260502161812 26 180 0.0 0.0 0.00 0.00 0.00 34 1026.1
20260502161712 26 135 0.0 0.0 0.00 0.00 0.00 34 1026.0
20260502161612 26 135 0.0 0.0 0.00 0.00 0.00 34 1026.1
20260502161512 26 112 0.0 0.0 0.00 0.00 0.00 34 1026.3
20260502161412 26 157 0.0 0.0 0.00 0.00 0.00 34 1026.3
20260502161312 26 157 0.0 0.0 0.00 0.00 0.00 34 1026.1
20260502161212 26 135 0.0 0.0 0.00 0.00 0.00 34 1026.1
20260502161112 26 157 0.0 0.0 0.00 0.00 0.00 34 1026.3
20260502161012 26 157 0.0 0.0 0.00 0.00 0.00 34 1026.3
20260502160912 26 135 0.0 0.0 0.00 0.00 0.00 34 1026.1
20260502160812 26 180 8.0 0.0 0.00 0.00 0.00 33 1026.3
20260502160712 26 135 1.6 0.0 0.00 0.00 0.00 33 1026.3
20260502160612 26 180 0.0 0.0 0.00 0.00 0.00 33 1026.3
20260502160512 26 157 0.0 0.0 0.00 0.00 0.00 33 1026.3
20260502160412 26 180 0.0 0.0 0.00 0.00 0.00 33 1026.4
20260502160312 26 157 3.2 0.0 0.00 0.00 0.00 33 1026.4
20260502160212 26 157 0.0 0.0 0.00 0.00 0.00 33 1026.3
20260502160112 26 157 0.0 0.0 0.00 0.00 0.00 33 1026.4
20260502152312 26 157 0.0 0.0 0.00 0.00 0.00 33 1026.5
20260502152212 26 157 0.0 0.0 0.00 0.00 0.00 33 1026.5
20260502152112 26 135 3.2 0.0 0.00 0.00 0.00 33 1026.5
20260502152012 26 157 0.0 0.0 0.00 0.00 0.00 33 1026.5
20260502151912 26 157 9.7 0.0 0.00 0.00 0.00 33 1026.5
20260502151812 26 135 0.0 0.0 0.00 0.00 0.00 33 1026.8
20260502151712 26 135 3.2 0.0 0.00 0.00 0.00 33 1026.8
20260502151612 26 112 14.5 0.0 0.00 0.00 0.00 33 1026.8
20260502151512 26 45 0.0 0.0 0.00 0.00 0.00 33 1026.8
20260502151412 26 135 0.0 0.0 0.00 0.00 0.00 33 1026.9
20260502151312 26 180 0.0 0.0 0.00 0.00 0.00 33 1026.9
20260502151212 26 180 0.0 0.0 0.00 0.00 0.00 33 1026.6
20260502151112 26 180 0.0 0.0 0.00 0.00 0.00 32 1026.8
20260502151012 26 112 294.5 0.0 0.00 0.00 0.00 32 1026.9
20260502150912 26 135 0.0 0.0 0.00 0.00 0.00 32 1027.0
20260502150812 26 45 0.0 0.0 0.00 0.00 0.00 32 1027.0
20260502150712 26 135 0.0 0.0 0.00 0.00 0.00 32 1027.0
20260502150612 26 67 0.0 0.0 0.00 0.00 0.00 32 1027.0
20260502150512 26 90 0.0 0.0 0.00 0.00 0.00 32 1027.0
20260502150412 26 202 0.0 0.0 0.00 0.00 0.00 32 1027.0
20260502150312 26 202 0.0 0.0 0.00 0.00 0.00 32 1027.0
20260502150212 26 202 0.0 0.0 0.00 0.00 0.00 32 1027.0
20260502150112 26 202 0.0 0.0 0.00 0.00 0.00 32 1026.6
20260502140112 27 157 0.0 0.0 0.00 0.00 0.00 34 1027.6
20260502130712 27 157 0.0 0.0 0.00 0.00 0.00 36 1028.4
20260502130612 27 180 0.0 0.0 0.00 0.00 0.00 36 1028.4
20260502130512 27 157 0.0 0.0 0.00 0.00 0.00 36 1028.4
20260502130412 27 180 3.2 0.0 0.00 0.00 0.00 36 1028.4
20260502130312 27 180 0.0 0.0 0.00 0.00 0.00 36 1028.5
20260502130212 27 180 1.6 0.0 0.00 0.00 0.00 36 1028.5
20260502130112 27 180 0.0 0.0 0.00 0.00 0.00 36 1028.5
20260502123812 26 180 0.0 0.0 0.00 0.00 0.00 37 1028.5
20260502123712 26 180 0.0 0.0 0.00 0.00 0.00 37 1028.6
20260502123612 26 225 4.8 0.0 0.00 0.00 0.00 37 1028.6
20260502123512 26 202 6.4 0.0 0.00 0.00 0.00 37 1028.8
20260502123412 26 202 1.6 0.0 0.00 0.00 0.00 37 1028.6
20260502123312 26 180 0.0 0.0 0.00 0.00 0.00 37 1028.6
20260502123212 26 180 0.0 0.0 0.00 0.00 0.00 37 1028.6
20260502123112 26 157 0.0 0.0 0.00 0.00 0.00 37 1028.9
20260502123012 26 180 0.0 0.0 0.00 0.00 0.00 37 1028.9
20260502122912 26 180 0.0 0.0 0.00 0.00 0.00 37 1028.9
20260502122812 26 180 0.0 0.0 0.00 0.00 0.00 37 1028.8
20260502122712 26 157 0.0 0.0 0.00 0.00 0.00 37 1028.9
20260502122612 26 157 0.0 0.0 0.00 0.00 0.00 37 1028.9
20260502122512 26 180 0.0 0.0 0.00 0.00 0.00 38 1028.9
20260502122413 26 202 9.7 0.0 0.00 0.00 0.00 38 1029.0
20260502122312 26 202 0.0 0.0 0.00 0.00 0.00 38 1028.9
20260502122212 26 225 0.0 0.0 0.00 0.00 0.00 38 1029.0
20260502122112 26 202 0.0 0.0 0.00 0.00 0.00 38 1029.0
20260502122012 26 202 0.0 0.0 0.00 0.00 0.00 38 1029.0
20260502121912 26 202 0.0 0.0 0.00 0.00 0.00 38 1029.0
20260502121812 26 135 0.0 0.0 0.00 0.00 0.00 38 1029.0
20260502121712 25 157 0.0 0.0 0.00 0.00 0.00 38 1029.0
20260502121612 25 157 0.0 0.0 0.00 0.00 0.00 38 1029.0
20260502121512 25 135 8.0 0.0 0.00 0.00 0.00 38 1029.0
20260502121412 25 157 0.0 0.0 0.00 0.00 0.00 38 1029.0
20260502121312 25 157 0.0 0.0 0.00 0.00 0.00 38 1029.0
20260502121212 25 157 3.2 0.0 0.00 0.00 0.00 38 1029.0
20260502121112 25 202 0.0 0.0 0.00 0.00 0.00 38 1029.0
20260502121012 25 202 0.0 0.0 0.00 0.00 0.00 38 1029.0
20260502120912 25 180 0.0 0.0 0.00 0.00 0.00 38 1029.1
20260502120812 25 180 0.0 0.0 0.00 0.00 0.00 38 1029.0
20260502120712 25 135 0.0 0.0 0.00 0.00 0.00 38 1029.0
20260502120612 25 135 0.0 0.0 0.00 0.00 0.00 38 1029.0
20260502120512 25 180 0.0 0.0 0.00 0.00 0.00 38 1029.0
20260502120412 25 202 0.0 0.0 0.00 0.00 0.00 38 1029.1
20260502120312 25 0 0.0 0.0 0.00 0.00 0.00 38 1029.0
20260502120212 25 0 0.0 0.0 0.00 0.00 0.00 38 1029.1
20260502120112 25 135 0.0 0.0 0.00 0.00 0.00 39 1029.1
20260502115912 25 22 0.0 0.0 0.00 0.00 0.00 39 1029.1
20260502115812 25 45 0.0 0.0 0.00 0.00 0.00 39 1029.3
20260502115712 25 45 0.0 0.0 0.00 0.00 0.00 39 1029.3
20260502115612 25 45 0.0 0.0 0.00 0.00 0.00 39 1029.4
20260502115512 25 112 0.0 0.0 0.00 0.00 0.00 39 1029.3
20260502115412 25 135 4.8 0.0 0.00 0.00 0.00 39 1029.4
20260502115312 25 157 0.0 0.0 0.00 0.00 0.00 39 1029.4
20260502115212 25 157 0.0 0.0 0.00 0.00 0.00 39 1029.3
20260502115112 25 157 0.0 0.0 0.00 0.00 0.00 39 1029.4
20260502115012 25 135 0.0 0.0 0.00 0.00 0.00 39 1029.4
20260502114912 25 135 0.0 0.0 0.00 0.00 0.00 39 1029.3
20260502114812 25 45 0.0 0.0 0.00 0.00 0.00 40 1029.5
20260502114712 25 45 0.0 0.0 0.00 0.00 0.00 40 1029.5
20260502114612 25 45 0.0 0.0 0.00 0.00 0.00 40 1029.5
20260502114512 25 112 0.0 0.0 0.00 0.00 0.00 40 1029.5
20260502114412 25 67 9.7 0.0 0.00 0.00 0.00 40 1029.5
20260502114312 25 135 0.0 0.0 0.00 0.00 0.00 40 1029.5
20260502114212 25 135 9.7 0.0 0.00 0.00 0.00 40 1029.5
20260502114112 25 67 0.0 0.0 0.00 0.00 0.00 40 1029.5
20260502114012 25 135 0.0 0.0 0.00 0.00 0.00 40 1029.5
20260502113912 25 112 0.0 0.0 0.00 0.00 0.00 40 1029.5
20260502113812 25 135 0.0 0.0 0.00 0.00 0.00 40 1029.5
20260502113712 25 157 0.0 0.0 0.00 0.00 0.00 40 1029.6
20260502113612 25 67 0.0 0.0 0.00 0.00 0.00 40 1029.6
20260502113512 25 135 11.3 0.0 0.00 0.00 0.00 40 1029.6
20260502113412 25 135 0.0 0.0 0.00 0.00 0.00 40 1029.6
20260502113312 25 112 0.0 0.0 0.00 0.00 0.00 41 1029.6
20260502113212 25 67 6.4 0.0 0.00 0.00 0.00 41 1029.8
20260502113112 24 157 9.7 0.0 0.00 0.00 0.00 41 1029.8
20260502113012 24 135 6.4 0.0 0.00 0.00 0.00 41 1029.8
20260502112912 24 112 0.0 0.0 0.00 0.00 0.00 41 1029.8
20260502112812 24 135 0.0 0.0 0.00 0.00 0.00 41 1029.9
20260502112712 24 112 0.0 0.0 0.00 0.00 0.00 41 1029.9
20260502112612 24 135 0.0 0.0 0.00 0.00 0.00 41 1029.8
20260502112512 24 112 0.0 0.0 0.00 0.00 0.00 41 1029.6
20260502112412 24 135 3.2 0.0 0.00 0.00 0.00 41 1029.9
20260502112312 24 112 0.0 0.0 0.00 0.00 0.00 41 1030.0
20260502112212 24 135 0.0 0.0 0.00 0.00 0.00 41 1030.0
20260502112112 24 135 0.0 0.0 0.00 0.00 0.00 41 1030.0
20260502112012 24 135 0.0 0.0 0.00 0.00 0.00 42 1030.0
20260502111912 24 135 3.2 0.0 0.00 0.00 0.00 42 1030.0
20260502111812 24 180 8.0 0.0 0.00 0.00 0.00 42 1030.0
20260502111712 24 180 3.2 0.0 0.00 0.00 0.00 42 1030.0
20260502111612 24 135 0.0 0.0 0.00 0.00 0.00 42 1030.0
20260502111512 23 157 0.0 0.0 0.00 0.00 0.00 42 1030.0
20260502111412 23 180 0.0 0.0 0.00 0.00 0.00 42 1030.0
20260502111312 23 157 0.0 0.0 0.00 0.00 0.00 42 1030.0
20260502111212 23 157 0.0 0.0 0.00 0.00 0.00 42 1030.0
20260502111112 23 135 0.0 0.0 0.00 0.00 0.00 42 1030.0
20260502111012 23 157 0.0 0.0 0.00 0.00 0.00 42 1030.0
20260502110912 23 180 0.0 0.0 0.00 0.00 0.00 42 1030.0
20260502110812 23 180 0.0 0.0 0.00 0.00 0.00 42 1030.0
20260502110712 23 135 0.0 0.0 0.00 0.00 0.00 42 1030.0
20260502110612 23 180 0.0 0.0 0.00 0.00 0.00 42 1030.0
20260502110512 23 180 0.0 0.0 0.00 0.00 0.00 42 1030.0
20260502110412 23 180 0.0 0.0 0.00 0.00 0.00 42 1030.0
20260502110312 23 180 0.0 0.0 0.00 0.00 0.00 42 1030.0
20260502110212 23 180 0.0 0.0 0.00 0.00 0.00 42 1030.0
20260502110112 23 202 0.0 0.0 0.00 0.00 0.00 43 1030.0
20260502110012 23 180 0.0 0.0 0.00 0.00 0.00 43 1030.1
20260502105912 23 180 0.0 0.0 0.00 0.00 0.00 43 1030.3
20260502105812 23 180 0.0 0.0 0.00 0.00 0.00 43 1030.1
20260502105712 23 180 0.0 0.0 0.00 0.00 0.00 43 1030.1
20260502105612 23 202 0.0 0.0 0.00 0.00 0.00 43 1030.1
20260502105512 23 202 0.0 0.0 0.00 0.00 0.00 43 1030.4
20260502105412 23 202 0.0 0.0 0.00 0.00 0.00 43 1030.4
20260502105312 23 180 0.0 0.0 0.00 0.00 0.00 43 1030.3
20260502105212 23 157 0.0 0.0 0.00 0.00 0.00 43 1030.4
20260502105112 23 157 0.0 0.0 0.00 0.00 0.00 43 1030.4
20260502105012 23 157 0.0 0.0 0.00 0.00 0.00 43 1030.4
20260502104912 23 157 0.0 0.0 0.00 0.00 0.00 43 1030.4
20260502104812 22 135 4.8 0.0 0.00 0.00 0.00 43 1030.5
20260502104712 23 247 0.0 0.0 0.00 0.00 0.00 43 1030.4
20260502104612 22 247 0.0 0.0 0.00 0.00 0.00 43 1030.4
20260502104512 22 247 0.0 0.0 0.00 0.00 0.00 43 1030.4
20260502104412 22 225 0.0 0.0 0.00 0.00 0.00 43 1030.5
20260502104312 22 202 9.7 0.0 0.00 0.00 0.00 43 1030.5
20260502104212 22 202 9.7 0.0 0.00 0.00 0.00 43 1030.5
20260502104112 22 180 0.0 0.0 0.00 0.00 0.00 43 1030.5
20260502104012 22 135 0.0 0.0 0.00 0.00 0.00 43 1030.5
20260502103912 22 135 0.0 0.0 0.00 0.00 0.00 44 1030.5
20260502103812 22 135 0.0 0.0 0.00 0.00 0.00 44 1030.5
20260502103712 22 157 3.2 0.0 0.00 0.00 0.00 44 1030.5
20260502103612 22 67 0.0 0.0 0.00 0.00 0.00 44 1030.5
20260502103512 22 157 0.0 0.0 0.00 0.00 0.00 44 1030.5
20260502103412 22 157 0.0 0.0 0.00 0.00 0.00 44 1030.5
20260502103312 22 67 0.0 0.0 0.00 0.00 0.00 44 1030.5
20260502103212 22 135 0.0 0.0 0.00 0.00 0.00 44 1030.5
20260502103112 22 135 0.0 0.0 0.00 0.00 0.00 44 1030.5
20260502103012 22 112 0.0 0.0 0.00 0.00 0.00 44 1030.5
20260502102912 22 157 0.0 0.0 0.00 0.00 0.00 44 1030.5
20260502102812 22 157 0.0 0.0 0.00 0.00 0.00 44 1030.5
20260502102712 22 135 0.0 0.0 0.00 0.00 0.00 44 1030.5
20260502102612 22 157 0.0 0.0 0.00 0.00 0.00 44 1030.6
20260502102512 22 157 0.0 0.0 0.00 0.00 0.00 44 1030.8
20260502102412 22 180 0.0 0.0 0.00 0.00 0.00 44 1030.6
20260502102312 22 157 0.0 0.0 0.00 0.00 0.00 44 1030.8
20260502102212 22 180 0.0 0.0 0.00 0.00 0.00 44 1030.8
20260502102112 22 157 0.0 0.0 0.00 0.00 0.00 44 1030.8
20260502102012 22 157 4.8 0.0 0.00 0.00 0.00 45 1030.8
20260502101912 21 180 0.0 0.0 0.00 0.00 0.00 45 1030.9
20260502101812 21 157 0.0 0.0 0.00 0.00 0.00 44 1030.9
20260502101712 21 157 0.0 0.0 0.00 0.00 0.00 44 1030.8
20260502101612 21 157 4.8 0.0 0.00 0.00 0.00 44 1030.9
20260502101512 21 135 0.0 0.0 0.00 0.00 0.00 44 1030.9
20260502101412 21 157 0.0 0.0 0.00 0.00 0.00 44 1030.9
20260502101312 21 135 0.0 0.0 0.00 0.00 0.00 44 1030.8
20260502101212 21 157 0.0 0.0 0.00 0.00 0.00 45 1031.0
20260502101112 21 157 0.0 0.0 0.00 0.00 0.00 45 1031.0
20260502101012 21 135 0.0 0.0 0.00 0.00 0.00 45 1031.0
20260502100912 21 157 0.0 0.0 0.00 0.00 0.00 45 1031.0
20260502100812 21 135 0.0 0.0 0.00 0.00 0.00 45 1031.0
20260502100712 21 180 0.0 0.0 0.00 0.00 0.00 45 1030.9
20260502100612 21 180 0.0 0.0 0.00 0.00 0.00 45 1031.0
20260502100512 21 135 0.0 0.0 0.00 0.00 0.00 45 1031.0
20260502100412 21 157 0.0 0.0 0.00 0.00 0.00 45 1031.0
20260502100312 21 180 0.0 0.0 0.00 0.00 0.00 45 1031.0
20260502100212 21 157 0.0 0.0 0.00 0.00 0.00 45 1031.0
20260502100112 21 157 0.0 0.0 0.00 0.00 0.00 45 1031.0
20260502091512 19 157 1.6 0.0 0.00 0.00 0.00 47 1031.5
20260502091412 19 180 0.0 0.0 0.00 0.00 0.00 47 1031.5
20260502091312 19 157 0.0 0.0 0.00 0.00 0.00 47 1031.5
20260502091212 19 180 0.0 0.0 0.00 0.00 0.00 47 1031.5
20260502091112 19 180 0.0 0.0 0.00 0.00 0.00 47 1031.5
20260502091012 18 180 4.8 0.0 0.00 0.00 0.00 47 1031.5
20260502090912 18 180 0.0 0.0 0.00 0.00 0.00 47 1031.5
20260502090812 18 180 0.0 0.0 0.00 0.00 0.00 47 1031.5
20260502090712 18 135 0.0 0.0 0.00 0.00 0.00 47 1031.5
20260502090612 18 135 0.0 0.0 0.00 0.00 0.00 47 1031.5
20260502090512 18 135 0.0 0.0 0.00 0.00 0.00 47 1031.5
20260502090412 18 180 0.0 0.0 0.00 0.00 0.00 47 1031.5
20260502090312 18 180 0.0 0.0 0.00 0.00 0.00 47 1031.5
20260502090212 18 135 0.0 0.0 0.00 0.00 0.00 47 1031.5
20260502090112 18 180 0.0 0.0 0.00 0.00 0.00 47 1031.6
20260502071511 16 270 0.0 0.0 0.00 0.00 0.00 47 1032.0
20260502071411 16 270 0.0 0.0 0.00 0.00 0.00 47 1032.1
20260502071311 16 270 0.0 0.0 0.00 0.00 0.00 47 1032.0
20260502071211 16 270 0.0 0.0 0.00 0.00 0.00 47 1032.0
20260502071111 16 270 0.0 0.0 0.00 0.00 0.00 47 1032.0
20260502071011 16 270 0.0 0.0 0.00 0.00 0.00 47 1032.0
20260502070911 16 270 0.0 0.0 0.00 0.00 0.00 47 1032.1
20260502070811 16 270 0.0 0.0 0.00 0.00 0.00 47 1032.1
20260502070711 17 270 0.0 0.0 0.00 0.00 0.00 47 1032.1
20260502070611 17 270 0.0 0.0 0.00 0.00 0.00 47 1032.1
20260502070511 17 270 0.0 0.0 0.00 0.00 0.00 47 1032.1
20260502070411 17 270 0.0 0.0 0.00 0.00 0.00 47 1032.1
20260502070311 17 270 0.0 0.0 0.00 0.00 0.00 47 1032.1
20260502070211 17 270 0.0 0.0 0.00 0.00 0.00 47 1032.1
20260502070112 17 270 0.0 0.0 0.00 0.00 0.00 48 1032.1
20260502070012 17 270 0.0 0.0 0.00 0.00 0.00 47 1032.3
20260502065911 17 270 0.0 0.0 0.00 0.00 0.00 48 1032.1
20260502065811 17 292 0.0 0.0 0.00 0.00 0.00 48 1032.1
20260502065711 17 337 0.0 0.0 0.00 0.00 0.00 48 1032.1
20260502065611 17 337 0.0 0.0 0.00 0.00 0.00 48 1032.1
20260502065511 17 292 0.0 0.0 0.00 0.00 0.00 48 1032.1
20260502065411 17 292 0.0 0.0 0.00 0.00 0.00 48 1032.3
20260502065311 17 292 0.0 0.0 0.00 0.00 0.00 48 1032.3
20260502065211 17 337 0.0 0.0 0.00 0.00 0.00 48 1032.3
20260502065111 17 337 0.0 0.0 0.00 0.00 0.00 48 1032.3
20260502065011 17 337 0.0 0.0 0.00 0.00 0.00 48 1032.1
20260502064911 17 337 0.0 0.0 0.00 0.00 0.00 48 1032.3
20260502064811 17 337 0.0 0.0 0.00 0.00 0.00 48 1032.3
20260502064711 17 337 0.0 0.0 0.00 0.00 0.00 48 1032.3
20260502064611 17 337 0.0 0.0 0.00 0.00 0.00 48 1032.1
20260502064511 17 315 0.0 0.0 0.00 0.00 0.00 48 1032.3
20260502064411 17 315 0.0 0.0 0.00 0.00 0.00 48 1032.3
20260502064311 17 315 0.0 0.0 0.00 0.00 0.00 48 1032.3
20260502064211 17 315 0.0 0.0 0.00 0.00 0.00 48 1032.1
20260502064111 17 315 0.0 0.0 0.00 0.00 0.00 48 1032.0
20260502064011 17 315 0.0 0.0 0.00 0.00 0.00 48 1032.1
20260502063911 17 315 0.0 0.0 0.00 0.00 0.00 48 1032.3
20260502063811 17 315 0.0 0.0 0.00 0.00 0.00 49 1032.3
20260502063711 17 315 0.0 0.0 0.00 0.00 0.00 49 1032.1
20260502063611 17 315 0.0 0.0 0.00 0.00 0.00 49 1032.3
20260502063511 17 315 0.0 0.0 0.00 0.00 0.00 49 1032.1
20260502063411 17 315 0.0 0.0 0.00 0.00 0.00 49 1032.1
20260502063311 17 315 0.0 0.0 0.00 0.00 0.00 49 1032.3
20260502063211 17 315 0.0 0.0 0.00 0.00 0.00 49 1032.3
20260502063111 18 315 0.0 0.0 0.00 0.00 0.00 49 1032.3
20260502063011 17 315 0.0 0.0 0.00 0.00 0.00 49 1032.3
20260502062911 17 315 0.0 0.0 0.00 0.00 0.00 49 1032.3
20260502062811 18 315 0.0 0.0 0.00 0.00 0.00 49 1032.3
20260502062711 17 315 0.0 0.0 0.00 0.00 0.00 49 1032.0
20260502062611 17 315 0.0 0.0 0.00 0.00 0.00 49 1032.1
20260502062511 17 315 0.0 0.0 0.00 0.00 0.00 50 1032.1
20260502062411 17 315 0.0 0.0 0.00 0.00 0.00 50 1032.1
20260502062311 17 315 0.0 0.0 0.00 0.00 0.00 50 1032.0
20260502062211 17 315 0.0 0.0 0.00 0.00 0.00 50 1032.0
20260502062111 17 315 0.0 0.0 0.00 0.00 0.00 50 1032.0
20260502062011 17 315 0.0 0.0 0.00 0.00 0.00 50 1032.1
20260502061911 17 315 0.0 0.0 0.00 0.00 0.00 50 1032.1
20260502061811 17 315 0.0 0.0 0.00 0.00 0.00 50 1032.0
20260502061711 17 315 0.0 0.0 0.00 0.00 0.00 50 1032.0
20260502061611 17 315 0.0 0.0 0.00 0.00 0.00 50 1032.0
20260502061511 17 315 0.0 0.0 0.00 0.00 0.00 51 1032.0
20260502061411 17 315 0.0 0.0 0.00 0.00 0.00 51 1032.0
20260502061311 17 315 0.0 0.0 0.00 0.00 0.00 51 1032.0
20260502061211 17 315 0.0 0.0 0.00 0.00 0.00 51 1032.0
20260502061111 17 315 0.0 0.0 0.00 0.00 0.00 51 1032.1
20260502061011 17 315 0.0 0.0 0.00 0.00 0.00 52 1032.1
20260502060911 17 315 0.0 0.0 0.00 0.00 0.00 52 1032.0
20260502060811 17 315 0.0 0.0 0.00 0.00 0.00 52 1032.1
20260502060711 17 315 0.0 0.0 0.00 0.00 0.00 52 1032.1
20260502060611 17 315 0.0 0.0 0.00 0.00 0.00 52 1032.3
20260502060511 17 315 0.0 0.0 0.00 0.00 0.00 52 1032.1
20260502060411 17 315 0.0 0.0 0.00 0.00 0.00 53 1032.1
20260502060311 17 315 0.0 0.0 0.00 0.00 0.00 53 1032.1
20260502060211 17 315 0.0 0.0 0.00 0.00 0.00 53 1032.1
20260502060111 17 315 0.0 0.0 0.00 0.00 0.00 53 1032.0
20260502060011 17 315 0.0 0.0 0.00 0.00 0.00 54 1032.1
20260502055911 17 315 0.0 0.0 0.00 0.00 0.00 54 1032.1
20260502055811 16 315 0.0 0.0 0.00 0.00 0.00 54 1032.1
20260502055711 16 315 0.0 0.0 0.00 0.00 0.00 54 1032.1
20260502055611 16 315 0.0 0.0 0.00 0.00 0.00 54 1032.3
20260502055511 16 315 0.0 0.0 0.00 0.00 0.00 54 1032.1
20260502055411 16 315 0.0 0.0 0.00 0.00 0.00 54 1032.3
20260502055311 16 315 0.0 0.0 0.00 0.00 0.00 55 1032.3
20260502055211 16 315 0.0 0.0 0.00 0.00 0.00 55 1032.1
20260502055111 16 315 0.0 0.0 0.00 0.00 0.00 55 1032.1
20260502055011 16 315 0.0 0.0 0.00 0.00 0.00 55 1032.1
20260502054911 16 315 0.0 0.0 0.00 0.00 0.00 55 1032.1
20260502054811 15 315 0.0 0.0 0.00 0.00 0.00 56 1032.1
20260502054711 15 315 0.0 0.0 0.00 0.00 0.00 56 1032.1
20260502054611 15 315 0.0 0.0 0.00 0.00 0.00 56 1032.1
20260502054511 15 315 0.0 0.0 0.00 0.00 0.00 56 1032.1
20260502054411 15 315 0.0 0.0 0.00 0.00 0.00 57 1032.1
20260502054311 15 315 0.0 0.0 0.00 0.00 0.00 57 1032.1
20260502054211 15 315 0.0 0.0 0.00 0.00 0.00 57 1032.1
20260502054111 15 315 0.0 0.0 0.00 0.00 0.00 58 1032.3
20260502054011 14 315 0.0 0.0 0.00 0.00 0.00 58 1032.1
20260502053911 14 315 0.0 0.0 0.00 0.00 0.00 58 1032.1
20260502053811 14 315 0.0 0.0 0.00 0.00 0.00 58 1032.1
20260502053711 14 315 0.0 0.0 0.00 0.00 0.00 58 1032.1
20260502053611 13 315 0.0 0.0 0.00 0.00 0.00 59 1032.1
20260502053511 13 315 0.0 0.0 0.00 0.00 0.00 59 1032.1
20260502053411 13 315 0.0 0.0 0.00 0.00 0.00 59 1032.3
20260502053311 13 315 0.0 0.0 0.00 0.00 0.00 59 1032.1
20260502053211 13 315 0.0 0.0 0.00 0.00 0.00 59 1032.1
20260502053111 13 315 0.0 0.0 0.00 0.00 0.00 60 1032.1
20260502053011 13 315 0.0 0.0 0.00 0.00 0.00 60 1032.1
20260502052911 13 315 0.0 0.0 0.00 0.00 0.00 60 1032.1
20260502052811 12 315 0.0 0.0 0.00 0.00 0.00 60 1032.1
20260502052711 12 315 0.0 0.0 0.00 0.00 0.00 60 1032.1
20260502052611 12 315 0.0 0.0 0.00 0.00 0.00 60 1032.1
20260502052511 12 315 0.0 0.0 0.00 0.00 0.00 60 1032.1
20260502052411 12 315 0.0 0.0 0.00 0.00 0.00 61 1032.1
20260502052311 12 315 0.0 0.0 0.00 0.00 0.00 61 1032.1
20260502052211 11 315 0.0 0.0 0.00 0.00 0.00 61 1032.1
20260502052111 11 315 0.0 0.0 0.00 0.00 0.00 61 1032.1
20260502052011 11 315 0.0 0.0 0.00 0.00 0.00 61 1032.3
20260502051911 11 315 0.0 0.0 0.00 0.00 0.00 61 1032.1
20260502051811 11 315 0.0 0.0 0.00 0.00 0.00 62 1032.1
20260502051711 11 315 0.0 0.0 0.00 0.00 0.00 62 1032.3
20260502051611 10 315 0.0 0.0 0.00 0.00 0.00 62 1032.3
20260502051511 10 315 0.0 0.0 0.00 0.00 0.00 62 1032.1
20260502051411 10 315 0.0 0.0 0.00 0.00 0.00 62 1032.3
20260502051311 10 315 0.0 0.0 0.00 0.00 0.00 62 1032.3
20260502051211 10 315 0.0 0.0 0.00 0.00 0.00 62 1032.0
20260502051111 10 315 0.0 0.0 0.00 0.00 0.00 62 1032.1
20260502051011 10 315 0.0 0.0 0.00 0.00 0.00 62 1032.1
20260502050911 10 315 0.0 0.0 0.00 0.00 0.00 62 1032.0
20260502050811 9 315 0.0 0.0 0.00 0.00 0.00 63 1032.0
20260502050711 9 315 0.0 0.0 0.00 0.00 0.00 63 1032.0
20260502050611 9 315 0.0 0.0 0.00 0.00 0.00 63 1032.0
20260502050511 8 315 0.0 0.0 0.00 0.00 0.00 63 1032.0
20260502050411 8 315 0.0 0.0 0.00 0.00 0.00 63 1032.0
20260502050311 8 315 0.0 0.0 0.00 0.00 0.00 63 1032.0
20260502050211 8 315 0.0 0.0 0.00 0.00 0.00 63 1032.0
20260502050111 8 315 0.0 0.0 0.00 0.00 0.00 63 1032.0
20260502050011 8 315 0.0 0.0 0.00 0.00 0.00 63 1032.0
20260502045911 8 315 0.0 0.0 0.00 0.00 0.00 63 1032.0
20260502045811 7 315 0.0 0.0 0.00 0.00 0.00 63 1032.0
20260502045711 7 315 0.0 0.0 0.00 0.00 0.00 63 1032.0
20260502045611 7 315 0.0 0.0 0.00 0.00 0.00 63 1032.0
20260502045511 7 315 0.0 0.0 0.00 0.00 0.00 63 1032.0
20260502045411 7 315 0.0 0.0 0.00 0.00 0.00 64 1032.0
20260502045311 7 315 0.0 0.0 0.00 0.00 0.00 64 1032.0
20260502045211 6 315 0.0 0.0 0.00 0.00 0.00 64 1032.0
20260502045111 6 315 0.0 0.0 0.00 0.00 0.00 64 1032.0
20260502045011 6 315 0.0 0.0 0.00 0.00 0.00 64 1032.0
20260502044911 6 315 0.0 0.0 0.00 0.00 0.00 64 1032.0
20260502044811 6 315 0.0 0.0 0.00 0.00 0.00 64 1032.0
20260502044711 6 315 0.0 0.0 0.00 0.00 0.00 64 1032.0
20260502044611 6 315 0.0 0.0 0.00 0.00 0.00 64 1032.0
20260502044511 6 315 0.0 0.0 0.00 0.00 0.00 64 1032.0
20260502044411 5 315 0.0 0.0 0.00 0.00 0.00 64 1032.0
20260502044311 5 315 0.0 0.0 0.00 0.00 0.00 64 1032.0
20260502044211 5 315 0.0 0.0 0.00 0.00 0.00 64 1032.0
20260502044111 5 315 0.0 0.0 0.00 0.00 0.00 64 1032.0
20260502044011 5 315 0.0 0.0 0.00 0.00 0.00 64 1032.0
20260502043911 4 315 0.0 0.0 0.00 0.00 0.00 64 1032.0
20260502043811 4 315 0.0 0.0 0.00 0.00 0.00 64 1032.0
20260502043711 4 315 0.0 0.0 0.00 0.00 0.00 64 1032.0
20260502043611 3 315 0.0 0.0 0.00 0.00 0.00 64 1032.0
20260502043411 3 315 0.0 0.0 0.00 0.00 0.00 64 1032.0
20260502043311 3 315 0.0 0.0 0.00 0.00 0.00 64 1032.0
20260502043211 3 315 0.0 0.0 0.00 0.00 0.00 64 1032.0
20260502043111 3 315 0.0 0.0 0.00 0.00 0.00 64 1032.0
20260502043011 3 315 0.0 0.0 0.00 0.00 0.00 64 1032.0
20260502042911 3 315 0.0 0.0 0.00 0.00 0.00 64 1032.0
20260502042811 3 315 0.0 0.0 0.00 0.00 0.00 64 1032.0
20260502042711 3 315 0.0 0.0 0.00 0.00 0.00 64 1032.0
20260502042611 3 315 0.0 0.0 0.00 0.00 0.00 64 1031.9
20260502042511 3 315 0.0 0.0 0.00 0.00 0.00 64 1031.9
20260502042411 3 315 0.0 0.0 0.00 0.00 0.00 64 1031.9
20260502042311 3 315 0.0 0.0 0.00 0.00 0.00 64 1031.9
20260502042211 3 315 0.0 0.0 0.00 0.00 0.00 64 1032.0
20260502042111 3 315 0.0 0.0 0.00 0.00 0.00 64 1032.0
20260502042011 3 315 0.0 0.0 0.00 0.00 0.00 64 1031.9
20260502041911 3 315 0.0 0.0 0.00 0.00 0.00 64 1032.0
20260502041811 3 315 0.0 0.0 0.00 0.00 0.00 64 1032.0
20260502041711 3 315 0.0 0.0 0.00 0.00 0.00 64 1032.0
20260502041611 3 315 0.0 0.0 0.00 0.00 0.00 64 1032.0
20260502041511 3 315 0.0 0.0 0.00 0.00 0.00 63 1032.1
20260502041411 3 315 0.0 0.0 0.00 0.00 0.00 64 1032.0
20260502041311 2 315 0.0 0.0 0.00 0.00 0.00 64 1031.9
20260502041211 3 315 0.0 0.0 0.00 0.00 0.00 63 1032.0
20260502041111 3 315 0.0 0.0 0.00 0.00 0.00 63 1032.0
20260502041011 3 315 0.0 0.0 0.00 0.00 0.00 63 1032.0
20260502040911 3 315 294.5 0.0 0.00 0.00 0.00 63 1032.0
20260502040811 3 315 0.0 0.0 0.00 0.00 0.00 63 1032.0
20260502040711 3 315 0.0 0.0 0.00 0.00 0.00 63 1032.0
20260502040611 3 315 0.0 0.0 0.00 0.00 0.00 63 1032.0
20260502040511 2 315 0.0 0.0 0.00 0.00 0.00 63 1032.0
20260502040411 2 315 0.0 0.0 0.00 0.00 0.00 63 1032.0
20260502040311 3 315 0.0 0.0 0.00 0.00 0.00 63 1032.0
20260502040211 3 315 0.0 0.0 0.00 0.00 0.00 63 1032.0
20260502040111 3 315 0.0 0.0 0.00 0.00 0.00 63 1032.0
20260502040011 3 315 0.0 0.0 0.00 0.00 0.00 63 1032.0
20260502035911 3 315 0.0 0.0 0.00 0.00 0.00 63 1032.0
20260502035811 3 315 0.0 0.0 0.00 0.00 0.00 63 1031.9
20260502035711 3 315 0.0 0.0 0.00 0.00 0.00 63 1031.9
20260502035611 3 315 0.0 0.0 0.00 0.00 0.00 63 1031.9
20260502035511 3 315 0.0 0.0 0.00 0.00 0.00 63 1031.9
20260502035411 3 315 0.0 0.0 0.00 0.00 0.00 63 1031.9
20260502035311 3 315 0.0 0.0 0.00 0.00 0.00 63 1031.9
20260502035211 3 315 0.0 0.0 0.00 0.00 0.00 63 1031.9
20260502035111 3 315 0.0 0.0 0.00 0.00 0.00 63 1032.0
20260502035011 3 315 0.0 0.0 0.00 0.00 0.00 63 1031.9
20260502034911 3 315 0.0 0.0 0.00 0.00 0.00 63 1031.9
20260502034811 3 315 0.0 0.0 0.00 0.00 0.00 63 1031.9
20260502034711 3 315 0.0 0.0 0.00 0.00 0.00 63 1031.9
20260502034611 3 315 0.0 0.0 0.00 0.00 0.00 63 1031.9
20260502034511 3 315 0.0 0.0 0.00 0.00 0.00 63 1031.9
20260502034411 3 315 0.0 0.0 0.00 0.00 0.00 63 1031.9
20260502034311 3 315 0.0 0.0 0.00 0.00 0.00 63 1031.9
20260502034211 3 315 0.0 0.0 0.00 0.00 0.00 63 1031.8
20260502034111 3 315 0.0 0.0 0.00 0.00 0.00 63 1031.8
20260502034011 3 315 0.0 0.0 0.00 0.00 0.00 63 1031.8
20260502033911 3 315 0.0 0.0 0.00 0.00 0.00 63 1031.9
20260502033811 3 315 0.0 0.0 0.00 0.00 0.00 63 1031.9
20260502033711 3 315 0.0 0.0 0.00 0.00 0.00 63 1031.8
20260502033611 3 315 0.0 0.0 0.00 0.00 0.00 63 1031.8
20260502033511 3 315 0.0 0.0 0.00 0.00 0.00 63 1031.8
20260502033411 3 315 0.0 0.0 0.00 0.00 0.00 63 1031.6
20260502033311 3 315 0.0 0.0 0.00 0.00 0.00 63 1031.8
20260502033211 3 315 0.0 0.0 0.00 0.00 0.00 63 1031.5
20260502033111 3 315 0.0 0.0 0.00 0.00 0.00 63 1031.8
20260502033011 3 315 0.0 0.0 0.00 0.00 0.00 63 1031.8
20260502032911 3 315 0.0 0.0 0.00 0.00 0.00 63 1031.6
20260502032811 3 315 0.0 0.0 0.00 0.00 0.00 62 1031.8
20260502032711 3 315 0.0 0.0 0.00 0.00 0.00 62 1031.8
20260502032611 3 315 0.0 0.0 0.00 0.00 0.00 62 1031.8
20260502032511 3 315 0.0 0.0 0.00 0.00 0.00 62 1031.6
20260502032411 3 315 0.0 0.0 0.00 0.00 0.00 62 1031.6
20260502032311 3 315 0.0 0.0 0.00 0.00 0.00 62 1031.6
20260502032211 3 315 0.0 0.0 0.00 0.00 0.00 62 1031.6
20260502032111 3 315 0.0 0.0 0.00 0.00 0.00 62 1031.6
20260502032011 3 315 0.0 0.0 0.00 0.00 0.00 62 1031.6
20260502031942 3 315 0.0 0.0 0.00 0.00 0.00 62 1031.8
20260502031911 3 315 0.0 0.0 0.00 0.00 0.00 62 1031.8
20260502031811 3 315 0.0 0.0 0.00 0.00 0.00 62 1031.5
20260502031711 3 315 0.0 0.0 0.00 0.00 0.00 62 1031.6
20260502031611 3 315 0.0 0.0 0.00 0.00 0.00 62 1031.8
20260502031511 3 315 0.0 0.0 0.00 0.00 0.00 62 1031.9
20260502031411 3 315 0.0 0.0 0.00 0.00 0.00 62 1031.9
20260502031311 3 315 0.0 0.0 0.00 0.00 0.00 62 1031.8
20260502031211 3 315 0.0 0.0 0.00 0.00 0.00 62 1032.0
20260502031111 3 315 0.0 0.0 0.00 0.00 0.00 62 1031.9
20260502031011 3 315 0.0 0.0 0.00 0.00 0.00 62 1031.8
20260502030911 3 315 0.0 0.0 0.00 0.00 0.00 62 1031.9
20260502030811 3 315 0.0 0.0 0.00 0.00 0.00 62 1032.0
20260502030711 3 315 0.0 0.0 0.00 0.00 0.00 62 1032.0
20260502030611 3 315 0.0 0.0 0.00 0.00 0.00 62 1032.0
20260502030511 3 315 0.0 0.0 0.00 0.00 0.00 62 1031.9
20260502030411 3 315 0.0 0.0 0.00 0.00 0.00 62 1032.0
20260502030311 3 315 0.0 0.0 0.00 0.00 0.00 62 1032.0
20260502030211 3 315 0.0 0.0 0.00 0.00 0.00 62 1031.9
20260502030111 3 315 0.0 0.0 0.00 0.00 0.00 62 1031.8
20260502030011 3 315 0.0 0.0 0.00 0.00 0.00 62 1031.9
20260502025911 3 315 0.0 0.0 0.00 0.00 0.00 61 1031.9
20260502025811 3 315 0.0 0.0 0.00 0.00 0.00 61 1031.9
20260502025711 3 315 0.0 0.0 0.00 0.00 0.00 61 1031.9
20260502025611 3 315 0.0 0.0 0.00 0.00 0.00 61 1031.9
20260502025511 3 315 0.0 0.0 0.00 0.00 0.00 61 1031.9
20260502025411 3 315 0.0 0.0 0.00 0.00 0.00 61 1032.0
20260502025311 3 315 0.0 0.0 0.00 0.00 0.00 61 1031.8
20260502025211 3 315 0.0 0.0 0.00 0.00 0.00 61 1031.9
20260502025111 3 315 0.0 0.0 0.00 0.00 0.00 61 1031.9
20260502025011 3 315 0.0 0.0 0.00 0.00 0.00 61 1031.9
20260502024911 3 315 0.0 0.0 0.00 0.00 0.00 61 1031.9
20260502024811 3 315 0.0 0.0 0.00 0.00 0.00 61 1031.9
20260502024711 3 315 0.0 0.0 0.00 0.00 0.00 61 1031.9
20260502024611 3 315 0.0 0.0 0.00 0.00 0.00 61 1031.9
20260502024511 3 315 0.0 0.0 0.00 0.00 0.00 61 1031.8
20260502024411 3 315 0.0 0.0 0.00 0.00 0.00 61 1031.9
20260502024311 3 315 0.0 0.0 0.00 0.00 0.00 61 1032.0
20260502024211 3 315 0.0 0.0 0.00 0.00 0.00 61 1031.9
20260502024111 3 315 0.0 0.0 0.00 0.00 0.00 61 1031.9
20260502024011 3 315 0.0 0.0 0.00 0.00 0.00 61 1031.9
20260502023911 3 315 0.0 0.0 0.00 0.00 0.00 61 1031.8
20260502023811 3 315 0.0 0.0 0.00 0.00 0.00 61 1031.9
20260502023711 3 315 0.0 0.0 0.00 0.00 0.00 61 1031.9
20260502023611 3 315 0.0 0.0 0.00 0.00 0.00 61 1031.9
20260502023511 3 315 0.0 0.0 0.00 0.00 0.00 61 1031.9
20260502023442 3 315 0.0 0.0 0.00 0.00 0.00 61 1031.8
20260502023411 3 315 0.0 0.0 0.00 0.00 0.00 60 1031.8
20260502023311 3 315 0.0 0.0 0.00 0.00 0.00 60 1031.9
20260502023211 3 315 0.0 0.0 0.00 0.00 0.00 60 1031.9
20260502023111 3 315 0.0 0.0 0.00 0.00 0.00 60 1031.9
20260502023011 3 315 0.0 0.0 0.00 0.00 0.00 60 1031.9
20260502022911 3 315 0.0 0.0 0.00 0.00 0.00 60 1031.9
20260502022811 3 315 0.0 0.0 0.00 0.00 0.00 60 1031.9
20260502022711 3 315 0.0 0.0 0.00 0.00 0.00 60 1032.0
20260502022611 3 315 0.0 0.0 0.00 0.00 0.00 60 1032.0
20260502022511 3 315 0.0 0.0 0.00 0.00 0.00 60 1031.9
20260502022411 3 315 0.0 0.0 0.00 0.00 0.00 60 1031.9
20260502022311 3 315 0.0 0.0 0.00 0.00 0.00 60 1032.0
20260502022211 3 315 0.0 0.0 0.00 0.00 0.00 60 1032.0
20260502022111 3 315 0.0 0.0 0.00 0.00 0.00 60 1032.0
20260502021942 3 315 0.0 0.0 0.00 0.00 0.00 60 1032.0
20260502021911 3 315 0.0 0.0 0.00 0.00 0.00 60 1032.0
20260502021811 3 315 0.0 0.0 0.00 0.00 0.00 60 1032.0
20260502021711 3 315 0.0 0.0 0.00 0.00 0.00 60 1032.0
20260502021611 3 315 0.0 0.0 0.00 0.00 0.00 60 1032.0
20260502021511 4 315 0.0 0.0 0.00 0.00 0.00 60 1032.0
20260502021411 4 315 0.0 0.0 0.00 0.00 0.00 60 1032.0
20260502021311 4 315 0.0 0.0 0.00 0.00 0.00 60 1032.0
20260502021211 4 315 0.0 0.0 0.00 0.00 0.00 60 1032.0
20260502021111 4 315 0.0 0.0 0.00 0.00 0.00 60 1032.0
20260502021011 4 315 0.0 0.0 0.00 0.00 0.00 60 1032.0
20260502020911 4 315 0.0 0.0 0.00 0.00 0.00 60 1032.0
20260502020811 4 315 0.0 0.0 0.00 0.00 0.00 60 1032.0
20260502020711 4 315 0.0 0.0 0.00 0.00 0.00 60 1032.0
20260502020611 4 315 0.0 0.0 0.00 0.00 0.00 60 1032.1
20260502020511 4 315 0.0 0.0 0.00 0.00 0.00 59 1032.0
20260502020411 4 315 0.0 0.0 0.00 0.00 0.00 59 1032.0
20260502020311 4 315 0.0 0.0 0.00 0.00 0.00 59 1032.0
20260502020211 4 315 0.0 0.0 0.00 0.00 0.00 59 1032.0
20260502020111 4 315 0.0 0.0 0.00 0.00 0.00 59 1032.0
20260502020011 4 315 0.0 0.0 0.00 0.00 0.00 59 1032.0
20260502015911 4 315 0.0 0.0 0.00 0.00 0.00 59 1032.0
20260502015811 4 315 0.0 0.0 0.00 0.00 0.00 59 1031.9
20260502015711 4 315 0.0 0.0 0.00 0.00 0.00 59 1031.9
20260502015611 4 315 0.0 0.0 0.00 0.00 0.00 59 1032.0
20260502015511 4 315 0.0 0.0 0.00 0.00 0.00 59 1031.9
20260502015411 4 315 0.0 0.0 0.00 0.00 0.00 59 1031.9
20260502015311 4 315 0.0 0.0 0.00 0.00 0.00 59 1032.0
20260502015211 4 315 0.0 0.0 0.00 0.00 0.00 59 1031.9
20260502015111 4 315 0.0 0.0 0.00 0.00 0.00 59 1031.9
20260502015011 4 315 0.0 0.0 0.00 0.00 0.00 59 1032.0
20260502014911 4 315 0.0 0.0 0.00 0.00 0.00 59 1031.8
20260502014811 5 315 0.0 0.0 0.00 0.00 0.00 59 1031.8
20260502014711 5 315 0.0 0.0 0.00 0.00 0.00 59 1031.9
20260502014611 5 315 0.0 0.0 0.00 0.00 0.00 59 1032.0
20260502014511 5 315 0.0 0.0 0.00 0.00 0.00 59 1032.0
20260502014411 5 315 0.0 0.0 0.00 0.00 0.00 59 1032.0
20260502014311 5 315 0.0 0.0 0.00 0.00 0.00 59 1032.0
20260502014211 5 315 0.0 0.0 0.00 0.00 0.00 59 1032.0
20260502014111 5 315 0.0 0.0 0.00 0.00 0.00 59 1031.9
20260502014011 5 315 0.0 0.0 0.00 0.00 0.00 58 1031.9
20260502013911 5 315 0.0 0.0 0.00 0.00 0.00 58 1032.0
20260502013811 5 315 0.0 0.0 0.00 0.00 0.00 58 1032.0
20260502013711 5 315 0.0 0.0 0.00 0.00 0.00 58 1032.0
20260502013611 5 315 0.0 0.0 0.00 0.00 0.00 58 1032.0
20260502013411 5 315 0.0 0.0 0.00 0.00 0.00 58 1032.0
20260502013311 5 315 0.0 0.0 0.00 0.00 0.00 58 1032.0
20260502013211 5 315 0.0 0.0 0.00 0.00 0.00 58 1032.0
20260502013111 5 315 0.0 0.0 0.00 0.00 0.00 58 1032.1
20260502013011 5 315 0.0 0.0 0.00 0.00 0.00 58 1032.1
20260502012911 5 315 0.0 0.0 0.00 0.00 0.00 58 1032.1
20260502012811 5 315 0.0 0.0 0.00 0.00 0.00 58 1032.1
20260502012711 5 315 0.0 0.0 0.00 0.00 0.00 58 1032.1
20260502012611 5 315 0.0 0.0 0.00 0.00 0.00 58 1032.0
20260502012511 5 315 0.0 0.0 0.00 0.00 0.00 58 1032.0
20260502012411 5 315 0.0 0.0 0.00 0.00 0.00 58 1032.0
20260502012311 5 315 0.0 0.0 0.00 0.00 0.00 58 1032.0
20260502012211 5 315 0.0 0.0 0.00 0.00 0.00 58 1032.0
20260502012111 5 315 0.0 0.0 0.00 0.00 0.00 58 1032.0
20260502012011 5 315 0.0 0.0 0.00 0.00 0.00 58 1032.1
20260502011911 5 315 0.0 0.0 0.00 0.00 0.00 58 1032.0
20260502011811 5 315 0.0 0.0 0.00 0.00 0.00 57 1032.0
20260502011711 5 315 0.0 0.0 0.00 0.00 0.00 57 1032.0
20260502011611 5 315 0.0 0.0 0.00 0.00 0.00 57 1032.0
20260502011511 5 315 0.0 0.0 0.00 0.00 0.00 58 1032.0
20260502011411 5 315 0.0 0.0 0.00 0.00 0.00 58 1032.0
20260502011311 5 315 0.0 0.0 0.00 0.00 0.00 58 1032.0
20260502011211 5 315 0.0 0.0 0.00 0.00 0.00 58 1032.0
20260502011111 5 315 0.0 0.0 0.00 0.00 0.00 58 1032.0
20260502011011 5 315 0.0 0.0 0.00 0.00 0.00 58 1032.0
20260502010911 5 315 0.0 0.0 0.00 0.00 0.00 58 1032.1
20260502010811 5 315 0.0 0.0 0.00 0.00 0.00 58 1032.0
20260502010711 5 315 0.0 0.0 0.00 0.00 0.00 58 1032.1
20260502010611 5 315 0.0 0.0 0.00 0.00 0.00 58 1032.1
20260502010511 5 315 0.0 0.0 0.00 0.00 0.00 57 1032.1
20260502010411 5 315 0.0 0.0 0.00 0.00 0.00 57 1032.1
20260502010311 5 315 0.0 0.0 0.00 0.00 0.00 57 1032.1
20260502010211 5 315 0.0 0.0 0.00 0.00 0.00 57 1032.1
20260502010111 5 315 0.0 0.0 0.00 0.00 0.00 57 1032.1
20260502010011 5 315 0.0 0.0 0.00 0.00 0.00 57 1032.1
20260502005911 5 315 0.0 0.0 0.00 0.00 0.00 57 1032.1
20260502005811 5 315 0.0 0.0 0.00 0.00 0.00 57 1032.1
20260502005711 5 315 0.0 0.0 0.00 0.00 0.00 57 1032.0
20260502005611 5 315 0.0 0.0 0.00 0.00 0.00 57 1032.0
20260502005511 5 315 0.0 0.0 0.00 0.00 0.00 57 1032.0
20260502005411 5 315 0.0 0.0 0.00 0.00 0.00 57 1032.0
20260502005311 5 315 0.0 0.0 0.00 0.00 0.00 57 1032.1
20260502005211 5 315 0.0 0.0 0.00 0.00 0.00 57 1032.0
20260502005111 5 315 0.0 0.0 0.00 0.00 0.00 57 1032.1
20260502005011 5 315 0.0 0.0 0.00 0.00 0.00 57 1032.1
20260502004911 5 315 0.0 0.0 0.00 0.00 0.00 57 1032.3
20260502004811 5 315 0.0 0.0 0.00 0.00 0.00 57 1032.1
20260502004711 5 315 0.0 0.0 0.00 0.00 0.00 57 1032.1
20260502004611 5 315 0.0 0.0 0.00 0.00 0.00 57 1032.3
20260502004511 6 315 0.0 0.0 0.00 0.00 0.00 57 1032.3
20260502004411 6 315 0.0 0.0 0.00 0.00 0.00 57 1032.3
20260502004311 6 315 0.0 0.0 0.00 0.00 0.00 57 1032.3
20260502004211 6 315 0.0 0.0 0.00 0.00 0.00 56 1032.1
20260502004111 6 315 0.0 0.0 0.00 0.00 0.00 56 1032.3
20260502004011 6 315 0.0 0.0 0.00 0.00 0.00 56 1032.3
20260502003911 6 315 0.0 0.0 0.00 0.00 0.00 56 1032.3
20260502003811 6 315 0.0 0.0 0.00 0.00 0.00 56 1032.1
20260502003711 6 315 0.0 0.0 0.00 0.00 0.00 56 1032.1
20260502003611 6 315 0.0 0.0 0.00 0.00 0.00 56 1032.1
20260502003511 6 315 0.0 0.0 0.00 0.00 0.00 56 1032.1
20260502003411 6 315 0.0 0.0 0.00 0.00 0.00 56 1032.3
20260502003311 6 315 0.0 0.0 0.00 0.00 0.00 56 1032.3
20260502003211 6 337 0.0 0.0 0.00 0.00 0.00 56 1032.3
20260502003111 6 337 0.0 0.0 0.00 0.00 0.00 56 1032.3
20260502003011 6 337 0.0 0.0 0.00 0.00 0.00 56 1032.1
20260502002911 6 337 0.0 0.0 0.00 0.00 0.00 56 1032.1
20260502002811 6 337 0.0 0.0 0.00 0.00 0.00 56 1032.1
20260502002711 6 337 0.0 0.0 0.00 0.00 0.00 56 1032.1
20260502002611 6 337 0.0 0.0 0.00 0.00 0.00 56 1032.3
20260502002511 6 337 0.0 0.0 0.00 0.00 0.00 56 1032.3
20260502002411 6 337 0.0 0.0 0.00 0.00 0.00 56 1032.3
20260502002311 6 337 0.0 0.0 0.00 0.00 0.00 56 1032.1
20260502002211 6 337 0.0 0.0 0.00 0.00 0.00 56 1032.1
20260502002111 6 337 0.0 0.0 0.30 0.00 0.00 56 1032.3
20260502002011 6 292 0.0 0.0 0.00 0.00 0.00 56 1032.3
20260502001911 6 292 0.0 0.0 0.00 0.00 0.00 56 1032.3
20260502001811 6 292 0.0 0.0 0.00 0.00 0.00 56 1032.3
20260502001711 6 292 0.0 0.0 0.00 0.00 0.00 56 1032.3
20260502001611 6 292 0.0 0.0 0.00 0.00 0.00 56 1032.3
20260502001511 6 292 0.0 0.0 0.00 0.00 0.00 56 1032.3
20260502001411 6 292 0.0 0.0 0.00 0.00 0.00 56 1032.1
20260502001311 6 292 0.0 0.0 0.00 0.00 0.00 56 1032.3
20260502001211 6 292 0.0 0.0 0.00 0.00 0.00 56 1032.3
20260502001111 6 292 0.0 0.0 0.00 0.00 0.00 56 1032.3
20260502001011 6 292 0.0 0.0 0.00 0.00 0.00 55 1032.1
20260502000911 6 292 0.0 0.0 0.00 0.00 0.00 56 1032.3
20260502000811 6 292 0.0 0.0 0.00 0.00 0.00 55 1032.1
20260502000711 6 292 0.0 0.0 0.00 0.00 0.00 55 1032.3
20260502000611 6 292 0.0 0.0 0.00 0.00 0.00 55 1032.1
20260502000511 6 292 0.0 0.0 0.00 0.00 0.00 55 1032.3
20260502000411 6 292 0.0 0.0 0.00 0.00 0.00 55 1032.3
20260502000311 6 292 0.0 0.0 0.00 0.00 0.00 55 1032.4
20260502000211 6 292 0.0 0.0 0.00 0.00 0.00 55 1032.4
20260502000111 6 292 0.0 0.0 0.00 0.00 0.00 55 1032.3
20260502000011 6 292 0.0 0.0 0.00 0.00 0.00 55 1032.3
20260501235911 6 315 0.0 0.0 0.00 0.00 0.00 55 1032.4
20260501235811 6 337 0.0 0.0 0.00 0.00 0.00 55 1032.3
20260501235711 6 337 0.0 0.0 0.00 0.00 0.00 55 1032.3
20260501235611 6 337 0.0 0.0 0.00 0.00 0.00 55 1032.3
20260501235511 6 337 0.0 0.0 0.00 0.00 0.00 55 1032.3
20260501235411 6 337 0.0 0.0 0.00 0.00 0.00 55 1032.3
20260501235311 6 337 0.0 0.0 0.00 0.00 0.00 55 1032.3
20260501235211 6 337 0.0 0.0 0.00 0.00 0.00 55 1032.4
20260501235111 6 337 0.0 0.0 0.00 0.00 0.00 55 1032.3
20260501235011 6 337 0.0 0.0 0.00 0.00 0.00 55 1032.3
20260501234911 6 270 0.0 0.0 0.00 0.00 0.00 55 1032.4
20260501234811 6 270 0.0 0.0 0.00 0.00 0.00 55 1032.4
20260501234711 6 270 0.0 0.0 0.00 0.00 0.00 55 1032.3
20260501234611 6 270 0.0 0.0 0.00 0.00 0.00 54 1032.5
20260501234511 6 270 0.0 0.0 0.00 0.00 0.00 54 1032.4
20260501234411 6 270 0.0 0.0 0.00 0.00 0.00 54 1032.3
20260501234311 7 270 0.0 0.0 0.00 0.00 0.00 54 1032.3
20260501234211 7 270 0.0 0.0 0.00 0.00 0.00 54 1032.3
20260501234111 7 270 0.0 0.0 0.00 0.00 0.00 54 1032.3
20260501234011 7 270 0.0 0.0 0.00 0.00 0.00 55 1032.3
20260501233911 7 270 0.0 0.0 0.00 0.00 0.00 55 1032.3
20260501233811 7 270 0.0 0.0 0.00 0.00 0.00 55 1032.3
20260501233711 7 270 0.0 0.0 0.00 0.00 0.00 55 1032.3
20260501233611 7 270 0.0 0.0 0.00 0.00 0.00 55 1032.3
20260501233511 7 270 0.0 0.0 0.00 0.00 0.00 55 1032.1
20260501233411 7 270 0.0 0.0 0.00 0.00 0.00 55 1032.3
20260501233311 7 270 0.0 0.0 0.00 0.00 0.00 55 1032.1
20260501233211 7 270 0.0 0.0 0.00 0.00 0.00 55 1032.3
20260501233111 7 270 0.0 0.0 0.00 0.00 0.00 55 1032.1
20260501233011 7 270 0.0 0.0 0.00 0.00 0.00 55 1032.3
20260501232911 7 270 0.0 0.0 0.00 0.00 0.00 55 1032.3
20260501232811 7 270 0.0 0.0 0.00 0.00 0.00 55 1032.3
20260501232711 7 270 0.0 0.0 0.00 0.00 0.00 55 1032.3
20260501232611 7 270 0.0 0.0 0.00 0.00 0.00 54 1032.3
20260501232511 7 270 0.0 0.0 0.00 0.00 0.00 54 1032.1
20260501232411 7 270 0.0 0.0 0.00 0.00 0.00 54 1032.1
20260501232311 7 270 0.0 0.0 0.00 0.00 0.00 54 1032.1
20260501232211 7 270 0.0 0.0 0.00 0.00 0.00 54 1032.3
20260501232111 7 270 0.0 0.0 0.00 0.00 0.00 54 1032.3
20260501232011 7 270 0.0 0.0 0.00 0.00 0.00 54 1032.0
20260501231911 7 270 0.0 0.0 0.00 0.00 0.00 54 1032.1
20260501231811 7 270 0.0 0.0 0.00 0.00 0.00 54 1032.1
20260501231711 7 270 0.0 0.0 0.00 0.00 0.00 54 1032.1
20260501231611 7 270 0.0 0.0 0.00 0.00 0.00 54 1032.1
20260501231511 7 270 0.0 0.0 0.00 0.00 0.00 54 1032.1
20260501231411 7 270 0.0 0.0 0.00 0.00 0.00 54 1032.1
20260501231311 7 270 0.0 0.0 0.00 0.00 0.00 54 1032.3
20260501231211 7 270 0.0 0.0 0.00 0.00 0.00 54 1032.3
20260501231111 7 270 0.0 0.0 0.00 0.00 0.00 54 1032.1
20260501231011 7 270 0.0 0.0 0.00 0.00 0.00 54 1032.1
20260501230911 7 270 0.0 0.0 0.00 0.00 0.00 54 1032.1
20260501230811 7 270 0.0 0.0 0.00 0.00 0.00 54 1032.3
20260501230711 7 270 0.0 0.0 0.00 0.00 0.00 54 1032.3
20260501230611 7 270 0.0 0.0 0.00 0.00 0.00 54 1032.1
20260501230511 7 270 0.0 0.0 0.00 0.00 0.00 53 1032.3
20260501230411 7 270 0.0 0.0 0.00 0.00 0.00 53 1032.3
20260501230311 7 270 0.0 0.0 0.00 0.00 0.00 53 1032.1
20260501230211 7 270 0.0 0.0 0.00 0.00 0.00 53 1032.1
20260501230111 7 270 0.0 0.0 0.00 0.00 0.00 53 1032.4
20260501230011 7 270 0.0 0.0 0.00 0.00 0.00 53 1032.3
20260501225911 7 270 0.0 0.0 0.00 0.00 0.00 53 1032.1
20260501225811 7 270 0.0 0.0 0.00 0.00 0.00 53 1032.1
20260501225711 7 270 0.0 0.0 0.00 0.00 0.00 53 1032.3
20260501225611 7 270 0.0 0.0 0.00 0.00 0.00 53 1032.3
20260501225511 7 270 0.0 0.0 0.00 0.00 0.00 53 1032.3
20260501225411 7 315 0.0 0.0 0.00 0.00 0.00 53 1032.3
20260501225311 7 315 0.0 0.0 0.00 0.00 0.00 53 1032.1
20260501225211 7 315 0.0 0.0 0.00 0.00 0.00 53 1032.3
20260501225111 7 337 0.0 0.0 0.00 0.00 0.00 53 1032.1
20260501225011 7 337 0.0 0.0 0.00 0.00 0.00 53 1032.1
20260501224911 7 337 0.0 0.0 0.00 0.00 0.00 53 1032.1
20260501224811 7 337 0.0 0.0 0.00 0.00 0.00 53 1032.1
20260501224711 7 315 0.0 0.0 0.00 0.00 0.00 53 1032.0
20260501224611 7 315 0.0 0.0 0.00 0.00 0.00 53 1032.0
20260501224511 7 315 0.0 0.0 0.00 0.00 0.00 53 1032.1
20260501224411 7 315 0.0 0.0 0.00 0.00 0.00 53 1032.1
20260501224311 7 315 0.0 0.0 0.00 0.00 0.00 53 1032.1
20260501224211 7 315 0.0 0.0 0.00 0.00 0.00 53 1032.0
20260501224111 7 315 0.0 0.0 0.00 0.00 0.00 53 1032.0
20260501224011 7 315 0.0 0.0 0.00 0.00 0.00 53 1032.0
20260501223911 7 315 0.0 0.0 0.00 0.00 0.00 53 1032.0
20260501223811 7 315 0.0 0.0 0.00 0.00 0.00 52 1032.0
20260501223710 7 315 0.0 0.0 0.00 0.00 0.00 52 1032.1
20260501223611 7 315 0.0 0.0 0.00 0.00 0.00 52 1032.1
20260501223511 7 315 0.0 0.0 0.00 0.00 0.00 52 1032.0
20260501223411 7 315 0.0 0.0 0.00 0.00 0.00 52 1032.1
20260501223310 7 315 0.0 0.0 0.00 0.00 0.00 52 1032.1
20260501223211 7 315 0.0 0.0 0.00 0.00 0.00 52 1032.3
20260501223111 7 315 0.0 0.0 0.00 0.00 0.00 52 1032.3
20260501223011 7 315 0.0 0.0 0.00 0.00 0.00 52 1032.3
20260501222910 7 315 0.0 0.0 0.00 0.00 0.00 52 1032.3
20260501222811 7 315 0.0 0.0 0.00 0.00 0.00 52 1032.3
20260501222711 7 315 0.0 0.0 0.00 0.00 0.00 52 1032.3
20260501222610 7 315 0.0 0.0 0.00 0.00 0.00 52 1032.3
20260501222511 7 315 0.0 0.0 0.00 0.00 0.00 52 1032.4
20260501222411 7 315 0.0 0.0 0.00 0.00 0.00 52 1032.3
20260501222310 7 315 0.0 0.0 0.00 0.00 0.00 52 1032.3
20260501222211 7 315 0.0 0.0 0.00 0.00 0.00 52 1032.3
20260501222110 7 315 0.0 0.0 0.00 0.00 0.00 52 1032.3
20260501222011 7 315 0.0 0.0 0.00 0.00 0.00 51 1032.3
20260501221911 7 315 0.0 0.0 0.00 0.00 0.00 51 1032.3
20260501221811 7 315 0.0 0.0 0.00 0.00 0.00 51 1032.3
20260501221710 7 315 0.0 0.0 0.00 0.00 0.00 51 1032.3
20260501221611 7 315 0.0 0.0 0.00 0.00 0.00 51 1032.3
20260501221511 7 315 0.0 0.0 0.00 0.00 0.00 51 1032.3
20260501221411 7 315 0.0 0.0 0.00 0.00 0.00 51 1032.3
20260501221310 8 315 0.0 0.0 0.00 0.00 0.00 51 1032.3
20260501221211 8 315 0.0 0.0 0.00 0.00 0.00 51 1032.3
20260501221111 8 315 0.0 0.0 0.00 0.00 0.00 51 1032.1
20260501221011 8 315 0.0 0.0 0.00 0.00 0.00 51 1032.1
20260501220910 8 315 0.0 0.0 0.00 0.00 0.00 51 1032.1
20260501220810 8 315 0.0 0.0 0.00 0.00 0.00 51 1032.3
20260501220710 8 315 0.0 0.0 0.00 0.00 0.00 51 1032.1
20260501220611 8 315 0.0 0.0 0.00 0.00 0.00 51 1032.1
20260501220510 8 315 0.0 0.0 0.00 0.00 0.00 51 1032.3
20260501220442 8 315 0.0 0.0 0.00 0.00 0.00 51 1032.1
20260501220411 8 315 0.0 0.0 0.00 0.00 0.00 51 1032.1
20260501220310 8 315 0.0 0.0 0.00 0.00 0.00 51 1032.3
20260501220210 8 315 0.0 0.0 0.00 0.00 0.00 51 1032.3
20260501220110 8 315 0.0 0.0 0.00 0.00 0.00 51 1032.4
20260501220010 8 315 0.0 0.0 0.00 0.00 0.00 51 1032.4
20260501215910 8 315 0.0 0.0 0.00 0.00 0.00 51 1032.3
20260501215810 8 315 0.0 0.0 0.00 0.00 0.00 51 1032.4
20260501215710 8 315 0.0 0.0 0.00 0.00 0.00 51 1032.3
20260501215610 8 315 0.0 0.0 0.00 0.00 0.00 51 1032.3
20260501215510 8 315 0.0 0.0 0.00 0.00 0.00 50 1032.3
20260501215410 8 315 0.0 0.0 0.00 0.00 0.00 50 1032.3
20260501215310 8 315 0.0 0.0 0.00 0.00 0.00 50 1032.3
20260501215210 8 315 0.0 0.0 0.00 0.00 0.00 50 1032.3
20260501215110 8 315 0.0 0.0 0.00 0.00 0.00 50 1032.1
20260501215010 8 315 0.0 0.0 0.00 0.00 0.00 50 1032.3
20260501214910 8 315 0.0 0.0 0.00 0.00 0.00 50 1032.3
20260501214810 8 180 0.0 0.0 0.00 0.00 0.00 50 1032.3
20260501214710 8 180 0.0 0.0 0.00 0.00 0.00 50 1032.3
20260501214610 8 180 0.0 0.0 0.00 0.00 0.00 50 1032.3
20260501214510 8 180 0.0 0.0 0.00 0.00 0.00 50 1032.3
20260501214410 8 180 0.0 0.0 0.00 0.00 0.00 50 1032.1
20260501214310 8 180 0.0 0.0 0.00 0.00 0.00 50 1032.3
20260501214210 8 180 0.0 0.0 0.00 0.00 0.00 50 1032.3
20260501214110 8 180 0.0 0.0 0.00 0.00 0.00 49 1032.1
20260501214010 8 180 0.0 0.0 0.00 0.00 0.00 49 1032.1
20260501213910 8 180 0.0 0.0 0.00 0.00 0.00 49 1032.1
20260501213810 8 180 0.0 0.0 0.00 0.00 0.00 49 1032.1
20260501213710 8 180 0.0 0.0 0.00 0.00 0.00 49 1032.1
20260501213610 8 180 0.0 0.0 0.00 0.00 0.00 49 1032.1
20260501213510 8 180 0.0 0.0 0.00 0.00 0.00 49 1032.3
20260501213410 8 180 0.0 0.0 0.00 0.00 0.00 49 1032.3
20260501213310 8 180 0.0 0.0 0.00 0.00 0.00 49 1032.3
20260501213210 8 180 0.0 0.0 0.00 0.00 0.00 49 1032.1
20260501213110 8 180 0.0 0.0 0.00 0.00 0.00 49 1032.3
20260501213010 8 180 0.0 0.0 0.00 0.00 0.00 49 1032.3
20260501212910 8 180 0.0 0.0 0.00 0.00 0.00 49 1032.3
20260501212810 8 180 0.0 0.0 0.00 0.00 0.00 49 1032.4
20260501212710 8 180 0.0 0.0 0.00 0.00 0.00 49 1032.4
20260501212610 8 180 0.0 0.0 0.00 0.00 0.00 49 1032.3
20260501212510 8 180 0.0 0.0 0.00 0.00 0.00 49 1032.3
20260501212410 8 180 0.0 0.0 0.00 0.00 0.00 49 1032.4
20260501212310 8 180 0.0 0.0 0.00 0.00 0.00 49 1032.3
20260501212210 8 180 0.0 0.0 0.00 0.00 0.00 49 1032.3
20260501212110 8 180 0.0 0.0 0.00 0.00 0.00 49 1032.3
20260501212010 8 180 0.0 0.0 0.00 0.00 0.00 49 1032.3
20260501211910 8 180 0.0 0.0 0.00 0.00 0.00 49 1032.3
20260501211810 8 180 0.0 0.0 0.00 0.00 0.00 49 1032.1
20260501211710 8 180 0.0 0.0 0.00 0.00 0.00 49 1032.1
20260501211610 8 180 0.0 0.0 0.00 0.00 0.00 49 1032.3
20260501211510 8 180 0.0 0.0 0.00 0.00 0.00 49 1032.3
20260501211410 9 180 0.0 0.0 0.00 0.00 0.00 49 1032.3
20260501211310 9 180 0.0 0.0 0.00 0.00 0.00 49 1032.1
20260501211210 9 180 0.0 0.0 0.00 0.00 0.00 49 1032.1
20260501211110 9 180 0.0 0.0 0.00 0.00 0.00 49 1032.1
20260501211010 9 180 0.0 0.0 0.00 0.00 0.00 49 1032.1
20260501210910 9 180 0.0 0.0 0.00 0.00 0.00 49 1032.1
20260501210810 9 180 0.0 0.0 0.00 0.00 0.00 48 1032.1
20260501210710 9 180 0.0 0.0 0.00 0.00 0.00 48 1032.3
20260501210610 9 180 0.0 0.0 0.00 0.00 0.00 48 1032.4
20260501210510 9 180 0.0 0.0 0.00 0.00 0.00 48 1032.1
20260501210410 9 180 0.0 0.0 0.00 0.00 0.00 48 1032.3
20260501210310 9 180 0.0 0.0 0.00 0.00 0.00 48 1032.3
20260501210210 9 180 0.0 0.0 0.00 0.00 0.00 48 1032.4
20260501210110 9 180 0.0 0.0 0.00 0.00 0.00 48 1032.3
20260501210010 9 180 0.0 0.0 0.00 0.00 0.00 48 1032.3
20260501205910 9 180 0.0 0.0 0.00 0.00 0.00 48 1032.3
20260501205810 9 180 0.0 0.0 0.00 0.00 0.00 48 1032.1
20260501205711 9 180 0.0 0.0 0.00 0.00 0.00 48 1032.1
20260501205610 9 180 0.0 0.0 0.00 0.00 0.00 48 1032.1
20260501205510 9 180 0.0 0.0 0.00 0.00 0.00 48 1032.3
20260501205410 9 180 0.0 0.0 0.00 0.00 0.00 48 1032.3
20260501205310 9 180 0.0 0.0 0.00 0.00 0.00 48 1032.3
20260501205210 9 180 0.0 0.0 0.00 0.00 0.00 48 1032.3
20260501205110 9 180 0.0 0.0 0.00 0.00 0.00 48 1032.3
20260501205010 9 180 0.0 0.0 0.00 0.00 0.00 48 1032.3
20260501204910 9 180 0.0 0.0 0.00 0.00 0.00 48 1032.1
20260501204810 9 180 0.0 0.0 0.00 0.00 0.00 48 1032.3
20260501204710 9 180 0.0 0.0 0.00 0.00 0.00 47 1032.1
20260501204610 9 180 0.0 0.0 0.00 0.00 0.00 47 1032.3
20260501204510 9 180 0.0 0.0 0.00 0.00 0.00 47 1032.3
20260501204410 10 180 0.0 0.0 0.00 0.00 0.00 47 1032.3
20260501204310 10 180 0.0 0.0 0.00 0.00 0.00 47 1032.3
20260501204210 10 180 0.0 0.0 0.00 0.00 0.00 47 1032.3
20260501204110 10 180 0.0 0.0 0.00 0.00 0.00 47 1032.3
20260501204010 10 180 0.0 0.0 0.00 0.00 0.00 47 1032.3
20260501203910 10 180 0.0 0.0 0.00 0.00 0.00 47 1032.3
20260501203810 10 180 0.0 0.0 0.00 0.00 0.00 47 1032.3
20260501203710 10 180 0.0 0.0 0.00 0.00 0.00 47 1032.3
20260501203610 10 180 0.0 0.0 0.00 0.00 0.00 47 1032.3
20260501203510 10 180 0.0 0.0 0.00 0.00 0.00 47 1032.3
20260501203410 10 180 0.0 0.0 0.00 0.00 0.00 47 1032.3
20260501203310 10 180 0.0 0.0 0.00 0.00 0.00 47 1032.1
20260501203210 10 180 0.0 0.0 0.00 0.00 0.00 47 1032.1
20260501203110 10 180 0.0 0.0 0.00 0.00 0.00 46 1032.3
20260501203010 10 180 0.0 0.0 0.00 0.00 0.00 46 1032.3
20260501202910 10 180 0.0 0.0 0.00 0.00 0.00 46 1032.3
20260501202810 10 180 0.0 0.0 0.00 0.00 0.00 46 1032.3
20260501202710 10 180 0.0 0.0 0.00 0.00 0.00 46 1032.1
20260501202610 10 180 0.0 0.0 0.00 0.00 0.00 46 1032.1
20260501202510 10 180 0.0 0.0 0.00 0.00 0.00 46 1032.1
20260501202410 10 180 0.0 0.0 0.00 0.00 0.00 46 1032.3
20260501202310 10 180 0.0 0.0 0.00 0.00 0.00 46 1032.3
20260501202210 10 180 0.0 0.0 0.00 0.00 0.00 46 1032.3
20260501202110 10 180 0.0 0.0 0.00 0.00 0.00 46 1032.3
20260501202010 10 180 0.0 0.0 0.00 0.00 0.00 46 1032.3
20260501201910 10 180 0.0 0.0 0.00 0.00 0.00 46 1032.1
20260501201810 10 180 0.0 0.0 0.00 0.00 0.00 45 1032.1
20260501201710 10 180 0.0 0.0 0.00 0.00 0.00 45 1032.1
20260501201610 10 180 0.0 0.0 0.00 0.00 0.00 45 1032.1
20260501201510 10 180 0.0 0.0 0.00 0.00 0.00 45 1032.1
20260501201410 10 180 0.0 0.0 0.00 0.00 0.00 45 1032.0
20260501201310 10 180 0.0 0.0 0.00 0.00 0.00 45 1032.0
20260501201210 10 180 0.0 0.0 0.00 0.00 0.00 45 1032.0
20260501201110 10 180 0.0 0.0 0.00 0.00 0.00 45 1032.1
20260501201010 10 180 0.0 0.0 0.00 0.00 0.00 45 1032.0
20260501200910 10 180 0.0 0.0 0.00 0.00 0.00 45 1032.1
20260501200810 10 180 0.0 0.0 0.00 0.00 0.00 45 1032.1
20260501200710 10 180 0.0 0.0 0.00 0.00 0.00 45 1032.3
20260501200610 10 180 0.0 0.0 0.00 0.00 0.00 44 1032.1
20260501200510 10 180 0.0 0.0 0.00 0.00 0.00 44 1032.3
20260501200410 10 180 0.0 0.0 0.00 0.00 0.00 44 1032.1
20260501200310 10 180 0.0 0.0 0.00 0.00 0.00 44 1032.1
20260501200210 10 180 0.0 0.0 0.00 0.00 0.00 44 1032.0
20260501200110 10 180 0.0 0.0 0.00 0.00 0.00 44 1032.1
20260501200010 10 180 0.0 0.0 0.00 0.00 0.00 44 1032.1
20260501195910 10 180 0.0 0.0 0.00 0.00 0.00 44 1032.1
20260501195810 10 180 0.0 0.0 0.00 0.00 0.00 44 1032.0
20260501195710 10 180 0.0 0.0 0.00 0.00 0.00 44 1032.3
20260501195610 10 180 0.0 0.0 0.00 0.00 0.00 44 1032.1
20260501195510 10 180 0.0 0.0 0.00 0.00 0.00 44 1032.1
20260501195410 10 180 0.0 0.0 0.00 0.00 0.00 43 1032.1
20260501195310 11 180 0.0 0.0 0.00 0.00 0.00 43 1032.0
20260501195210 11 180 0.0 0.0 0.00 0.00 0.00 43 1032.0
20260501195110 11 180 0.0 0.0 0.00 0.00 0.00 43 1032.0
20260501195010 11 180 0.0 0.0 0.00 0.00 0.00 43 1032.0
20260501194910 11 180 0.0 0.0 0.00 0.00 0.00 43 1032.0
20260501194810 11 180 0.0 0.0 0.00 0.00 0.00 43 1032.0
20260501194710 11 180 0.0 0.0 0.00 0.00 0.00 43 1031.9
20260501194610 11 180 0.0 0.0 0.00 0.00 0.00 43 1032.0
20260501194510 11 180 0.0 0.0 0.00 0.00 0.00 43 1032.1
20260501194410 11 180 0.0 0.0 0.00 0.00 0.00 42 1032.1
20260501194310 11 180 0.0 0.0 0.00 0.00 0.00 42 1032.1
20260501194210 11 180 0.0 0.0 0.00 0.00 0.00 42 1032.1
20260501194110 11 180 0.0 0.0 0.00 0.00 0.00 42 1032.0
20260501194010 11 180 0.0 0.0 0.00 0.00 0.00 42 1031.9
20260501193910 11 180 0.0 0.0 0.00 0.00 0.00 42 1032.0
20260501193810 11 180 0.0 0.0 0.00 0.00 0.00 42 1032.0
20260501193710 11 180 0.0 0.0 0.00 0.00 0.00 42 1032.0
20260501193610 11 180 0.0 0.0 0.00 0.00 0.00 42 1032.0
20260501193510 11 180 0.0 0.0 0.00 0.00 0.00 42 1032.0
20260501193410 11 180 0.0 0.0 0.00 0.00 0.00 42 1031.9
20260501193310 11 180 0.0 0.0 0.00 0.00 0.00 41 1031.9
20260501193210 11 180 0.0 0.0 0.00 0.00 0.00 41 1031.9
20260501193110 11 180 0.0 0.0 0.00 0.00 0.00 41 1031.9
20260501193010 11 180 0.0 0.0 0.00 0.00 0.00 41 1031.9
20260501192910 11 180 0.0 0.0 0.00 0.00 0.00 41 1031.9
20260501192810 11 180 0.0 0.0 0.00 0.00 0.00 41 1032.0
20260501192710 12 180 0.0 0.0 0.00 0.00 0.00 41 1031.9
20260501192610 12 180 0.0 0.0 0.00 0.00 0.00 41 1031.6
20260501192510 12 180 0.0 0.0 0.00 0.00 0.00 41 1031.8
20260501192410 12 180 0.0 0.0 0.00 0.00 0.00 41 1031.6
20260501192310 12 180 0.0 0.0 0.00 0.00 0.00 40 1031.6
20260501192210 12 180 0.0 0.0 0.00 0.00 0.00 40 1031.6
20260501192110 12 180 0.0 0.0 0.00 0.00 0.00 40 1031.9
20260501192010 12 180 0.0 0.0 0.00 0.00 0.00 40 1031.8
20260501191910 12 180 0.0 0.0 0.00 0.00 0.00 40 1031.8
20260501191810 12 180 0.0 0.0 0.00 0.00 0.00 40 1031.6
20260501191710 12 180 0.0 0.0 0.00 0.00 0.00 40 1031.8
20260501191610 12 180 0.0 0.0 0.00 0.00 0.00 40 1031.8
20260501191510 12 180 0.0 0.0 0.00 0.00 0.00 40 1031.6
20260501191410 12 180 0.0 0.0 0.00 0.00 0.00 39 1031.6
20260501191310 12 180 0.0 0.0 0.00 0.00 0.00 39 1031.8
20260501191210 12 180 0.0 0.0 0.00 0.00 0.00 39 1031.6
20260501191110 12 180 0.0 0.0 0.00 0.00 0.00 39 1031.8
20260501191010 12 180 0.0 0.0 0.00 0.00 0.00 39 1031.8
20260501190910 12 180 0.0 0.0 0.00 0.00 0.00 39 1031.9
20260501190810 13 180 0.0 0.0 0.00 0.00 0.00 39 1031.6
20260501190710 13 180 0.0 0.0 0.00 0.00 0.00 39 1031.8
20260501190610 13 180 0.0 0.0 0.00 0.00 0.00 39 1031.8
20260501190510 13 180 0.0 0.0 0.00 0.00 0.00 39 1031.5
20260501190410 13 180 0.0 0.0 0.00 0.00 0.00 38 1031.8
20260501190310 13 180 0.0 0.0 0.00 0.00 0.00 38 1031.6
20260501190210 13 180 0.0 0.0 0.00 0.00 0.00 38 1031.8
20260501190110 13 180 0.0 0.0 0.00 0.00 0.00 38 1031.8
20260501190010 13 180 0.0 0.0 0.00 0.00 0.00 38 1031.6
20260501185910 13 180 0.0 0.0 0.00 0.00 0.00 38 1031.8
20260501185811 13 180 0.0 0.0 0.00 0.00 0.00 38 1031.6
20260501185710 13 180 0.0 0.0 0.00 0.00 0.00 38 1031.8
20260501185610 13 180 0.0 0.0 0.00 0.00 0.00 38 1031.6
20260501185510 13 180 0.0 0.0 0.00 0.00 0.00 37 1031.6
20260501185410 13 180 0.0 0.0 0.00 0.00 0.00 37 1031.6
20260501185310 14 180 0.0 0.0 0.00 0.00 0.00 37 1031.8
20260501185210 14 180 0.0 0.0 0.00 0.00 0.00 37 1031.8
20260501185110 14 180 0.0 0.0 0.00 0.00 0.00 37 1031.6
20260501185010 14 180 0.0 0.0 0.00 0.00 0.00 37 1031.9
20260501184910 14 180 0.0 0.0 0.00 0.00 0.00 37 1031.6
20260501184810 14 180 0.0 0.0 0.00 0.00 0.00 37 1031.6
20260501184710 14 180 0.0 0.0 0.00 0.00 0.00 37 1031.6
20260501184610 15 180 0.0 0.0 0.00 0.00 0.00 36 1031.6
20260501184510 15 180 0.0 0.0 0.00 0.00 0.00 36 1031.8
20260501184410 15 180 0.0 0.0 0.00 0.00 0.00 36 1031.6
20260501184310 15 180 0.0 0.0 0.00 0.00 0.00 36 1031.8
20260501184210 15 180 0.0 0.0 0.00 0.00 0.00 36 1031.8
20260501184110 15 180 0.0 0.0 0.00 0.00 0.00 36 1031.8
20260501184010 15 180 0.0 0.0 0.00 0.00 0.00 36 1031.5
20260501183910 15 180 0.0 0.0 0.00 0.00 0.00 36 1031.6
20260501183810 15 180 0.0 0.0 0.00 0.00 0.00 36 1031.6
20260501183710 15 180 0.0 0.0 0.00 0.00 0.00 36 1031.8
20260501183610 15 180 0.0 0.0 0.00 0.00 0.00 36 1031.8
20260501183510 15 180 0.0 0.0 0.00 0.00 0.00 35 1031.8
20260501183410 16 180 0.0 0.0 0.00 0.00 0.00 35 1031.8
20260501183310 16 180 0.0 0.0 0.00 0.00 0.00 35 1031.9
20260501183210 16 180 0.0 0.0 0.00 0.00 0.00 35 1031.8
20260501183110 16 180 0.0 0.0 0.00 0.00 0.00 35 1031.8
20260501183010 16 180 0.0 0.0 0.00 0.00 0.00 35 1031.9
20260501182910 16 180 0.0 0.0 0.00 0.00 0.00 35 1031.8
20260501182810 16 180 0.0 0.0 0.00 0.00 0.00 35 1031.8
20260501182710 16 180 0.0 0.0 0.00 0.00 0.00 35 1031.9
20260501182610 16 180 0.0 0.0 0.00 0.00 0.00 35 1031.9
20260501182510 16 180 0.0 0.0 0.00 0.00 0.00 35 1031.9
20260501182410 16 180 0.0 0.0 0.00 0.00 0.00 35 1031.8
20260501182310 16 180 0.0 0.0 0.00 0.00 0.00 34 1032.0
20260501182210 17 180 0.0 0.0 0.00 0.00 0.00 34 1032.0
20260501182110 17 180 0.0 0.0 0.00 0.00 0.00 34 1032.0
20260501182010 17 180 0.0 0.0 0.00 0.00 0.00 34 1032.0
20260501181910 17 180 0.0 0.0 0.00 0.00 0.00 34 1032.0
20260501181810 17 180 0.0 0.0 0.00 0.00 0.00 34 1032.0
20260501181710 17 180 0.0 0.0 0.00 0.00 0.00 34 1032.0
20260501181610 17 180 0.0 0.0 0.00 0.00 0.00 34 1032.0
20260501181510 17 180 0.0 0.0 0.00 0.00 0.00 34 1032.0
20260501181410 17 180 0.0 0.0 0.00 0.00 0.00 34 1032.0
20260501181310 17 180 0.0 0.0 0.00 0.00 0.00 34 1032.0
20260501181210 17 180 0.0 0.0 0.00 0.00 0.00 34 1032.0
20260501181110 17 180 0.0 0.0 0.00 0.00 0.00 33 1032.1
20260501181010 17 180 0.0 0.0 0.00 0.00 0.00 33 1032.1
20260501180910 18 180 0.0 0.0 0.00 0.00 0.00 33 1032.0
20260501180810 18 180 0.0 0.0 0.00 0.00 0.00 33 1032.1
20260501180710 18 180 0.0 0.0 0.00 0.00 0.00 33 1032.0
20260501180610 18 180 0.0 0.0 0.00 0.00 0.00 33 1032.1
20260501180510 18 180 0.0 0.0 0.00 0.00 0.00 33 1032.1
20260501180410 18 180 0.0 0.0 0.00 0.00 0.00 33 1032.0
20260501180310 18 157 0.0 0.0 0.00 0.00 0.00 33 1032.0
20260501180210 18 157 0.0 0.0 0.00 0.00 0.00 33 1032.0
20260501180110 18 135 0.0 0.0 0.00 0.00 0.00 33 1032.0
20260501180010 18 135 0.0 0.0 0.00 0.00 0.00 32 1032.1
20260501175910 18 135 0.0 0.0 0.00 0.00 0.00 32 1032.3
20260501175810 18 135 0.0 0.0 0.00 0.00 0.00 32 1032.0
20260501175710 18 135 0.0 0.0 0.00 0.00 0.00 32 1032.0
20260501175610 19 135 0.0 0.0 0.00 0.00 0.00 32 1032.1
20260501175510 19 135 0.0 0.0 0.00 0.00 0.00 32 1032.1
20260501175410 19 135 0.0 0.0 0.00 0.00 0.00 32 1032.1
20260501175310 19 135 0.0 0.0 0.00 0.00 0.00 32 1032.0
20260501175210 19 135 0.0 0.0 0.00 0.00 0.00 32 1032.1
20260501175110 19 135 0.0 0.0 0.00 0.00 0.00 32 1032.3
20260501175010 19 135 0.0 0.0 0.00 0.00 0.00 32 1032.3
20260501174910 19 135 0.0 0.0 0.00 0.00 0.00 32 1032.1
20260501174810 20 112 0.0 0.0 0.00 0.00 0.00 32 1032.1
20260501174710 20 112 0.0 0.0 0.00 0.00 0.00 32 1032.0
20260501174610 20 112 0.0 0.0 0.00 0.00 0.00 32 1032.0
20260501174510 20 112 0.0 0.0 0.00 0.00 0.00 32 1032.0
20260501174410 20 112 0.0 0.0 0.00 0.00 0.00 31 1032.0
20260501174310 20 112 0.0 0.0 0.00 0.00 0.00 31 1032.0
20260501174210 20 112 0.0 0.0 0.00 0.00 0.00 31 1032.0
20260501174110 20 112 0.0 0.0 0.00 0.00 0.00 31 1032.0
20260501174010 20 112 0.0 0.0 0.00 0.00 0.00 31 1032.0
20260501173910 20 112 0.0 0.0 0.00 0.00 0.00 31 1032.0
20260501173810 20 112 0.0 0.0 0.00 0.00 0.00 31 1032.0
20260501173710 20 112 0.0 0.0 0.00 0.00 0.00 31 1032.0
20260501173610 20 112 0.0 0.0 0.00 0.00 0.00 31 1032.0
20260501173510 20 157 0.0 0.0 0.00 0.00 0.00 31 1032.0
20260501173410 20 135 0.0 0.0 0.00 0.00 0.00 31 1032.0
20260501173310 20 112 0.0 0.0 0.00 0.00 0.00 31 1031.9
20260501173210 20 112 0.0 0.0 0.00 0.00 0.00 31 1031.9
20260501173110 20 112 0.0 0.0 0.00 0.00 0.00 31 1031.9
20260501173010 20 135 0.0 0.0 0.00 0.00 0.00 31 1031.9
20260501172910 20 135 0.0 0.0 0.00 0.00 0.00 31 1031.9
20260501172810 20 135 0.0 0.0 0.00 0.00 0.00 31 1031.8
20260501172710 20 135 0.0 0.0 0.00 0.00 0.00 31 1031.6
20260501172610 20 135 0.0 0.0 0.00 0.00 0.00 31 1031.8
20260501172510 20 135 0.0 0.0 0.00 0.00 0.00 31 1031.9
20260501172410 20 112 0.0 0.0 0.00 0.00 0.00 31 1032.0
20260501172310 20 67 0.0 0.0 0.00 0.00 0.00 31 1032.0
20260501172210 20 67 0.0 0.0 0.00 0.00 0.00 31 1032.0
20260501172110 20 67 0.0 0.0 0.00 0.00 0.00 31 1032.0
20260501172010 20 90 0.0 0.0 0.00 0.00 0.00 31 1031.6
20260501171910 20 135 0.0 0.0 0.00 0.00 0.00 31 1031.6
20260501171810 20 135 0.0 0.0 0.00 0.00 0.00 30 1031.6
20260501171710 20 135 0.0 0.0 0.00 0.00 0.00 30 1031.5
20260501171610 20 45 0.0 0.0 0.00 0.00 0.00 30 1031.6
20260501171510 20 45 0.0 0.0 0.00 0.00 0.00 30 1031.5
20260501171410 20 112 0.0 0.0 0.00 0.00 0.00 30 1031.5
20260501171310 20 112 0.0 0.0 0.00 0.00 0.00 30 1031.4
20260501171210 20 90 0.0 0.0 0.00 0.00 0.00 30 1031.5
20260501171110 21 112 0.0 0.0 0.00 0.00 0.00 30 1031.5
20260501171010 21 157 0.0 0.0 0.00 0.00 0.00 30 1031.3
20260501170910 21 135 0.0 0.0 0.00 0.00 0.00 30 1031.3
20260501170810 21 135 0.0 0.0 0.00 0.00 0.00 30 1031.1
20260501170710 21 135 0.0 0.0 0.00 0.00 0.00 30 1031.0
20260501170610 21 45 0.0 0.0 0.00 0.00 0.00 30 1031.1
20260501170510 21 67 0.0 0.0 0.00 0.00 0.00 30 1031.0
20260501170410 21 67 0.0 0.0 0.00 0.00 0.00 30 1031.0
20260501170310 21 67 0.0 0.0 0.00 0.00 0.00 30 1031.0
20260501170210 21 112 0.0 0.0 0.00 0.00 0.00 30 1031.1
20260501170110 21 135 0.0 0.0 0.00 0.00 0.00 30 1031.0
20260501170010 21 135 0.0 0.0 0.00 0.00 0.00 30 1031.0
20260501165910 21 112 0.0 0.0 0.00 0.00 0.00 30 1031.0
20260501165810 21 67 0.0 0.0 0.00 0.00 0.00 30 1031.0
20260501165710 21 112 0.0 0.0 0.00 0.00 0.00 30 1031.0
20260501165610 21 45 0.0 0.0 0.00 0.00 0.00 30 1031.0
20260501165510 21 112 0.0 0.0 0.00 0.00 0.00 30 1031.1
20260501165410 21 112 0.0 0.0 0.00 0.00 0.00 30 1031.1
20260501165310 21 112 0.0 0.0 0.00 0.00 0.00 30 1031.0
20260501165210 21 112 0.0 0.0 0.00 0.00 0.00 30 1030.9
20260501165110 21 67 4.8 0.0 0.00 0.00 0.00 30 1031.0
20260501165010 21 135 4.8 0.0 0.00 0.00 0.00 30 1031.0
20260501164910 21 135 0.0 0.0 0.00 0.00 0.00 30 1031.0
20260501164810 21 135 0.0 0.0 0.00 0.00 0.00 30 1031.1
20260501164710 21 67 0.0 0.0 0.00 0.00 0.00 30 1031.1
20260501164610 21 67 0.0 0.0 0.00 0.00 0.00 30 1031.1
20260501164510 21 135 0.0 0.0 0.00 0.00 0.00 30 1031.0
20260501164410 21 135 0.0 0.0 0.00 0.00 0.00 29 1031.1
20260501164310 21 67 9.7 0.0 0.00 0.00 0.00 29 1031.3
20260501164210 21 45 11.3 0.0 0.00 0.00 0.00 30 1031.0
20260501164110 21 0 3.2 0.0 0.00 0.00 0.00 30 1031.0
20260501164010 21 22 12.9 0.0 0.00 0.00 0.00 30 1031.0
20260501163910 21 45 0.0 0.0 0.00 0.00 0.00 30 1031.1
20260501163810 21 45 1.6 0.0 0.00 0.00 0.00 30 1031.1
20260501163710 21 45 14.5 0.0 0.00 0.00 0.00 30 1031.1